Weather History for Carmi, IL

Change the Weather History Date:

Saturday, March 9, 2013

  Actual Average (KEVV) Record (KEVV)
Temperature  
Mean Temperature 50 °F 44 °F  
Max Temperature 60 °F 54 °F 80 °F (1925)
Min Temperature 39 °F 33 °F 10 °F (1932)
Degree Days  
Heating Degree Days 16 21  
Month to date heating degree days 204  
Since 1 July heating degree days 3778  
Cooling Degree Days 0 0  
Month to date cooling degree days 0  
Year to date cooling degree days 0  
Moisture  
Dew Point 36 °F    
Average Humidity 61    
Maximum Humidity 79    
Minimum Humidity 45    
Precipitation  
Precipitation 0.00 in 0.13 in 4.25 in (1964)
Month to date precipitation 1.10  
Year to date precipitation 7.37  
Snow  
Snow 0.00 in 0.10 in 6.80 in (1994)
Month to date snowfall 0.5  
Since 1 July snowfall 11.2  
Snow Depth -    
Sea Level Pressure  
Sea Level Pressure 30.10 in    
Wind  
Wind Speed 10 mph (SE)    
Max Wind Speed 18 mph    
Max Gust Speed 22 mph    
Visibility 10 miles    
Events      
T = Trace of Precipitation, MM = Missing Value Source: NWS Daily Summary

Daily Weather History Graph

Daily Weather History Graph

Search for Another Location

Airport:

Trip Planner

Search our weather history database for the weather conditions in past years. The results will help you decide how hot, cold, wet, or windy it might be!

Date:

Astronomy

Mar. 09, 2013 Rise Set
Actual Time 6:12 AM CST 5:54 PM CST
Civil Twilight 5:46 AM CST 6:20 PM CST
Nautical Twilight 5:15 AM CST 6:50 PM CST
Astronomical Twilight 4:44 AM CST 7:21 PM CST
Moon 4:34 AM CST (3/9) 3:57 PM CST (3/9)
Length of Visible Light 12h 34m
Length of Day
11h 41m
Waning Crescent, 5% of the Moon is Illuminated
Mar 9
Waning Crescent
Mar 11
New
Mar 19
First Quarter
Mar 27
Full
Apr 2
Last Quarter

Hourly Weather History & Observations

Time (CST) Temp. Windchill Dew Point Humidity Pressure Visibility Wind Dir Wind Speed Gust Speed Precip Events Conditions
12:15 AM 42.3 °F 37.3 °F 33.4 °F 71% 30.27 in 10.0 mi East 8.1 mph - N/A   Scattered Clouds
12:35 AM 41.9 °F 37.5 °F 33.4 °F 72% 30.27 in 10.0 mi ESE 6.9 mph - N/A   Scattered Clouds
12:55 AM 41.9 °F 35.9 °F 32.9 °F 70% 30.25 in 10.0 mi East 10.4 mph - N/A   Clear
1:15 AM 41.9 °F 35.9 °F 32.9 °F 70% 30.25 in 10.0 mi SE 10.4 mph - N/A   Clear
1:35 AM 41.9 °F 35.9 °F 33.1 °F 71% 30.23 in 10.0 mi ESE 10.4 mph - N/A   Clear
1:55 AM 41.0 °F 35.2 °F 33.3 °F 74% 30.24 in 10.0 mi SE 9.2 mph - N/A   Clear
2:15 AM 41.0 °F 33.5 °F 32.7 °F 72% 30.22 in 10.0 mi ESE 13.8 mph - N/A   Clear
2:35 AM 41.0 °F 34.7 °F 32.9 °F 73% 30.22 in 10.0 mi ESE 10.4 mph - N/A   Clear
2:55 AM 41.4 °F 34.7 °F 32.9 °F 72% 30.20 in 10.0 mi ESE 11.5 mph - N/A   Clear
3:15 AM 41.4 °F 35.7 °F 32.9 °F 72% 30.20 in 10.0 mi ESE 9.2 mph - N/A   Clear
3:35 AM 41.2 °F 36.0 °F 33.1 °F 73% 30.21 in 10.0 mi SE 8.1 mph - N/A   Clear
3:55 AM 40.3 °F 36.3 °F 33.3 °F 76% 30.22 in 10.0 mi SE 5.8 mph - N/A   Clear
4:15 AM 39.4 °F 34.5 °F 33.4 °F 79% 30.23 in 10.0 mi SE 6.9 mph - N/A   Clear
4:35 AM 39.4 °F 33.8 °F 33.3 °F 79% 30.22 in 10.0 mi ESE 8.1 mph - N/A   Clear
4:55 AM 39.7 °F 34.3 °F 33.4 °F 78% 30.21 in 10.0 mi East 8.1 mph - N/A   Clear
5:15 AM 40.3 °F 34.4 °F 33.8 °F 78% 30.20 in 10.0 mi East 9.2 mph - N/A   Clear
5:35 AM 40.3 °F 34.4 °F 33.3 °F 76% 30.20 in 10.0 mi ESE 9.2 mph - N/A   Clear
5:55 AM 40.3 °F 34.4 °F 33.1 °F 75% 30.20 in 10.0 mi East 9.2 mph - N/A   Clear
6:15 AM 40.6 °F 34.8 °F 32.9 °F 74% 30.20 in 10.0 mi ESE 9.2 mph - N/A   Clear
6:35 AM 41.0 °F 36.4 °F 33.1 °F 73% 30.20 in 10.0 mi East 6.9 mph - N/A   Clear
6:55 AM 41.4 °F 36.2 °F 33.1 °F 72% 30.21 in 10.0 mi ESE 8.1 mph - N/A   Clear
7:15 AM 42.6 °F 37.2 °F 33.8 °F 71% 30.20 in 10.0 mi ESE 9.2 mph - N/A   Clear
7:35 AM 43.2 °F 37.9 °F 34.0 °F 70% 30.21 in 10.0 mi SE 9.2 mph - N/A   Clear
7:55 AM 43.0 °F 37.7 °F 33.8 °F 70% 30.21 in 10.0 mi SE 9.2 mph - N/A   Clear
8:15 AM 43.9 °F 37.9 °F 34.7 °F 70% 30.20 in 10.0 mi ESE 11.5 mph - N/A   Clear
8:35 AM 46.0 °F 41.4 °F 34.2 °F 63% 30.20 in 10.0 mi SE 9.2 mph - N/A   Clear
8:55 AM 47.3 °F - 34.9 °F 62% 30.21 in 10.0 mi SE 9.2 mph - N/A   Clear
9:15 AM 47.5 °F - 35.2 °F 63% 30.20 in 10.0 mi SE 9.2 mph - N/A   Mostly Cloudy
9:35 AM 48.2 °F - 36.0 °F 63% 30.20 in 10.0 mi SE 6.9 mph - N/A   Overcast
9:55 AM 49.5 °F - 35.2 °F 58% 30.19 in 10.0 mi SSE 11.5 mph - N/A   Overcast
10:15 AM 49.5 °F - 34.9 °F 57% 30.19 in 10.0 mi SE 10.4 mph - N/A   Overcast
10:35 AM 49.5 °F - 35.4 °F 58% 30.18 in 10.0 mi SSE 10.4 mph - N/A   Overcast
10:55 AM 49.8 °F - 36.5 °F 60% 30.18 in 10.0 mi SSE 8.1 mph - N/A   Overcast
11:15 AM 49.8 °F - 37.0 °F 61% 30.16 in 10.0 mi ESE 10.4 mph - N/A   Overcast
11:35 AM 51.4 °F - 35.8 °F 55% 30.15 in 10.0 mi ESE 9.2 mph - N/A   Overcast
11:55 AM 52.9 °F - 37.0 °F 55% 30.13 in 10.0 mi ESE 10.4 mph - N/A   Overcast
12:15 PM 55.2 °F - 37.8 °F 52% 30.12 in 10.0 mi SE 10.4 mph - N/A   Overcast
12:35 PM 57.2 °F - 37.2 °F 47% 30.11 in 10.0 mi SE 12.7 mph - N/A   Scattered Clouds
12:55 PM 57.2 °F - 36.5 °F 46% 30.10 in 10.0 mi SSE 13.8 mph - N/A   Scattered Clouds
1:15 PM 56.3 °F - 38.5 °F 51% 30.09 in 10.0 mi SE 13.8 mph - N/A   Scattered Clouds
1:35 PM 56.1 °F - 37.9 °F 51% 30.07 in 10.0 mi SE 15.0 mph - N/A   Scattered Clouds
1:55 PM 56.3 °F - 38.7 °F 52% 30.07 in 10.0 mi SE 15.0 mph - N/A   Mostly Cloudy
2:15 PM 57.2 °F - 38.1 °F 49% 30.06 in 10.0 mi SE 18.4 mph - N/A   Mostly Cloudy
2:35 PM 59.2 °F - 39.4 °F 48% 30.04 in 10.0 mi SE 15.0 mph - N/A   Scattered Clouds
2:55 PM 60.6 °F - 39.9 °F 46% 30.03 in 10.0 mi SE 16.1 mph - N/A   Clear
3:15 PM 59.4 °F - 39.9 °F 49% 30.02 in 10.0 mi SE 17.3 mph 21.9 mph N/A   Clear
3:35 PM 59.2 °F - 40.3 °F 50% 30.02 in 10.0 mi SE 16.1 mph - N/A   Clear
3:55 PM 59.7 °F - 40.3 °F 49% 30.00 in 10.0 mi ESE 15.0 mph - N/A   Clear
4:15 PM 60.4 °F - 39.0 °F 45% 30.00 in 10.0 mi SE 15.0 mph - N/A   Clear
4:35 PM 60.4 °F - 39.6 °F 46% 30.00 in 10.0 mi SE 15.0 mph - N/A   Clear
4:55 PM 59.5 °F - 39.2 °F 47% 30.00 in 10.0 mi SE 13.8 mph - N/A   Clear
5:15 PM 57.9 °F - 40.6 °F 53% 30.00 in 10.0 mi SE 12.7 mph - N/A   Clear
5:35 PM 57.2 °F - 38.7 °F 50% 29.99 in 10.0 mi SE 12.7 mph - N/A   Clear
5:55 PM 56.3 °F - 38.1 °F 51% 29.99 in 10.0 mi SE 12.7 mph - N/A   Scattered Clouds
6:15 PM 54.5 °F - 38.8 °F 56% 29.99 in 10.0 mi SE 10.4 mph - N/A   Mostly Cloudy
6:35 PM 54.5 °F - 39.2 °F 56% 29.99 in 10.0 mi SE 13.8 mph - N/A   Overcast
6:55 PM 54.0 °F - 39.6 °F 58% 29.98 in 10.0 mi SE 11.5 mph - N/A   Overcast
7:15 PM 53.4 °F - 39.6 °F 59% 29.99 in 10.0 mi SE 10.4 mph - N/A   Mostly Cloudy
7:35 PM 52.9 °F - 39.4 °F 60% 29.99 in 10.0 mi SE 10.4 mph - N/A   Scattered Clouds
7:55 PM 51.1 °F - 39.0 °F 63% 29.97 in 10.0 mi SE 11.5 mph - N/A   Scattered Clouds
8:15 PM 51.1 °F - 38.3 °F 62% 29.97 in 10.0 mi SE 11.5 mph - N/A   Scattered Clouds
8:35 PM 51.1 °F - 38.3 °F 62% 29.95 in 10.0 mi SE 13.8 mph - N/A   Scattered Clouds
8:55 PM 51.8 °F - 38.1 °F 60% 29.95 in 10.0 mi SE 11.5 mph - N/A   Clear
9:15 PM 53.6 °F - 37.4 °F 54% 29.95 in 10.0 mi SE 13.8 mph - N/A   Clear
9:35 PM 54.0 °F - 38.1 °F 55% 29.95 in 10.0 mi SSE 11.5 mph - N/A   Clear
9:55 PM 54.1 °F - 38.3 °F 55% 29.95 in 10.0 mi SSE 13.8 mph - N/A   Clear
10:15 PM 54.5 °F - 38.3 °F 54% 29.95 in 10.0 mi SSE 15.0 mph - N/A   Clear
10:35 PM 54.9 °F - 38.5 °F 54% 29.95 in 10.0 mi SSE 13.8 mph - N/A   Clear
10:55 PM 55.8 °F - 37.6 °F 51% 29.94 in 10.0 mi SSE 11.5 mph - N/A   Clear
11:15 PM 55.0 °F - 38.5 °F 54% 29.93 in 10.0 mi SSE 13.8 mph - N/A   Clear
11:35 PM 55.2 °F - 38.5 °F 53% 29.93 in 10.0 mi SSE 13.8 mph - N/A   Clear
11:55 PM 54.3 °F - 39.2 °F 57% 29.93 in 10.0 mi SSE 12.7 mph - N/A   Clear